User: anonymous   Login
Location: Fort Wayne
(41.1310°N, 85.1290°W)
Time: 14:22:18
(UTC-04:00)
Language:

Cosmos 2219 Rocket - Orbit

View from above orbital plane
View from above orbital plane
View from above satellite
View from above satellite

Ground track
Ground track

The orbit data is extracted from the following two-line orbital elements,

1 22220U 92076B   18114.20322535  .00000015  00000-0  31729-4 0  9991
2 22220  70.9980 124.5669 0012203 169.4595 262.2127 14.16431877314814
Epoch (UTC): 24 April 2018 04:52:38
Eccentricity: 0.0012203
inclination: 70.9980°
perigee height: 828 km
apogee height: 846 km
right ascension of ascending node: 124.5669°
argument of perigee: 169.4595°
revolutions per day: 14.16431877
mean anomaly at epoch: 262.2127°
orbit number at epoch: 31481

The dashed part of the orbit path shows where the satellite is in the earth's shadow,  

DLR